Location: Palomar Mountain Lodge
(33.3110°N, 116.8495°W)
Time: 15:01:43
(UTC-07:00)

In-Cosmos 22 - Pass Details

Date: 14 June 2018
Orbit: 784 x 877 km, 81.2° (Epoch: 16 August)

Event Time Altitude Azimuth Distance (km) Brightness Sun altitude
Exits shadow 22:20:19 52° 178° (S) 1,013 4.2 -23.4°
Maximum altitude 22:21:43 84° 96° (E) 830 4.0 -23.5°
Drops below altitude 10° 22:27:17 10° 10° (N) 2,454 7.2 -24.2°
Sets 22:29:44 0° 9° (N) 3,406 8.0 -24.5°
